[[{"header":{"parameterUnit":"m.s-1","parameterCategory":1,"la1":30.2991,"la2":30.254,"lo1":-89.0895,"lo2":-89.0444,"dy":0.0017,"dx":0.0017,"nx":28,"ny":28,"refTime":"2023-07-31T09:00:00:Z","depth":0,"parameterNumber":2,"parameterNumberName":"U-component_of_WINDS"},"data":[0,0,0,0,0,0,0,0,0,0,0,0,0,0,0,0,0,0,0,0,0,0,0,0,0,0,0,0,0,0,0,0,0,0,0,0,0,0,0,0,0,0,0,0,0,0,0,0,0,0,0,0,0,0,0,0,0,0,-0.6919,-0.6918,0,-0.6787,-0.6785,-0.6784,-0.6702,-0.6702,-0.6701,-0.6701,-0.6559,-0.6556,-0.6553,0,0,0,0,0,0,0,0,0,0,0,0,0,-0.7097,-0.7094,-0.6919,-0.6918,-0.6916,-0.6787,-0.6785,-0.6783,-0.6702,-0.6702,-0.6701,-0.6701,-0.6561,-0.6557,-0.6552,0,0,0,0,0,0,0,0,0,0,0,0,0,-0.6998,-0.7093,-0.692,-0.686,-0.6853,-0.6787,-0.6785,-0.6783,-0.6702,-0.6702,-0.6701,-0.6701,-0.6562,-0.6557,-0.6552,-0.6533,0,0,-0.6536,-0.6534,0,0,0,0,0,0,0,0,-0.7003,-0.6991,-0.687,-0.6864,-0.6857,-0.6761,-0.6796,-0.6699,-0.6703,-0.676,-0.6701,-0.67,-0.6626,-0.6616,-0.6592,-0.6526,-0.652,-0.6536,-0.6533,-0.6531,-0.6529,0,0,0,0,0,0,0,-0.701,-0.6996,-0.6867,-0.6869,-0.686,-0.6838,-0.6824,-0.6777,-0.6698,-0.6755,-0.6748,-0.6734,-0.6622,-0.6597,-0.6588,-0.6518,-0.6536,-0.6532,-0.6528,-0.6526,-0.6429,-0.643,0,0,0,0,0,0,-0.7027,-0.7003,-0.6871,-0.6863,-0.693,-0.6836,-0.6819,-0.6792,-0.6698,-0.6683,-0.6735,-0.6731,-0.6606,-0.6594,-0.6583,-0.6554,-0.6531,-0.6526,-0.6523,-0.6429,-0.643,-0.643,0,0,0,0,0,0,-0.7032,-0.7016,-0.6876,-0.6931,-0.6911,-0.6833,-0.6803,-0.679,-0.6764,-0.6683,-0.6668,-0.6724,-0.6605,-0.659,-0.6546,-0.6548,-0.6524,-0.6519,-0.6428,-0.6429,-0.643,-0.6497,0,0,0,0,0,0,-0.7037,-0.7018,-0.7011,-0.6931,-0.6909,-0.6843,-0.6803,-0.6787,-0.6757,-0.675,-0.6669,-0.6655,-0.6604,-0.6554,-0.6541,-0.6541,-0.6515,-0.6428,-0.6429,-0.643,-0.6494,-0.65,-0.6505,0,0,0,0,0,-0.7044,-0.7034,-0.7011,-0.6996,-0.6899,-0.6844,-0.683,-0.6773,-0.6757,-0.6749,-0.6697,-0.6658,-0.6551,-0.6551,-0.6535,-0.6533,-0.6427,-0.6428,-0.6429,-0.6492,-0.6499,-0.6505,0,0,0,0,0,0,-0.7114,-0.7022,-0.6996,-0.6961,-0.6911,-0.683,-0.6817,-0.6782,-0.6734,-0.673,-0.6659,-0.6641,-0.6605,-0.6564,-0.6566,-0.651,-0.6484,-0.6483,-0.6537,-0.6543,-0.6549,-0.6558,-0.6511,0,0,0,0,0,-0.7126,-0.709,-0.7012,-0.6988,-0.6965,-0.6896,-0.687,-0.683,-0.6775,-0.6752,-0.6697,-0.6643,-0.6597,-0.6568,-0.6521,-0.6489,-0.6469,-0.648,-0.6485,-0.649,-0.6489,-0.6468,-0.6472,-0.6434,-0.6434,-0.6434,0,0,-0.7148,-0.7094,-0.7076,-0.7001,-0.6957,-0.6921,-0.6878,-0.6841,-0.6813,-0.6746,-0.6701,-0.6659,-0.6594,-0.6556,-0.6537,-0.6522,-0.6495,-0.6491,-0.6496,-0.6491,-0.647,-0.6473,-0.6477,-0.6434,-0.6434,-0.6434,0,0,-0.7172,-0.7128,-0.7104,-0.7062,-0.6998,-0.6952,-0.6947,-0.6871,-0.6841,-0.6796,-0.6746,-0.671,-0.6633,-0.6589,-0.6556,-0.6565,-0.6527,-0.6552,-0.6579,-0.656,-0.6563,-0.6565,-0.6568,-0.657,-0.6551,-0.6551,-0.6551,0,-0.7208,-0.7153,-0.7095,-0.7061,-0.703,-0.697,-0.6944,-0.6906,-0.6829,-0.6808,-0.6793,-0.6695,-0.6647,-0.6598,-0.6601,-0.6576,-0.6567,-0.656,-0.6568,-0.6569,-0.6571,-0.6572,-0.6573,-0.6555,-0.6554,-0.6554,-0.6554,0,-0.72,-0.7162,-0.715,-0.708,-0.7047,-0.7017,-0.6954,-0.6927,-0.6892,-0.6848,-0.6802,-0.6743,-0.6684,-0.6669,-0.6633,-0.6615,-0.6608,-0.6582,-0.6554,-0.6579,-0.6579,-0.6579,-0.6559,-0.6558,-0.6557,-0.6556,0,0,-0.7261,-0.7162,-0.7158,-0.7126,-0.7052,-0.7021,-0.6988,-0.6933,-0.6911,-0.686,-0.683,-0.6767,-0.6743,-0.6706,-0.6664,-0.6648,-0.6659,-0.6623,-0.6621,-0.6631,-0.6635,-0.6655,-0.6657,-0.6634,-0.6634,-0.6634,-0.664,0,-0.7273,-0.7214,-0.7162,-0.7121,-0.7085,-0.703,-0.7001,-0.6952,-0.6911,-0.6873,-0.6826,-0.6782,-0.6754,-0.6731,-0.6713,-0.6662,-0.6658,-0.666,-0.6604,-0.6603,-0.6621,-0.6657,-0.6677,-0.6686,-0.664,-0.664,-0.664,0,-0.7278,-0.7232,-0.7189,-0.7119,-0.7102,-0.7078,-0.7023,-0.6989,-0.6931,-0.6902,-0.6863,-0.682,-0.6782,-0.676,-0.6706,-0.6709,-0.6683,-0.6655,-0.6654,-0.6645,-0.6622,-0.6648,-0.6687,-0.6688,-0.664,-0.664,-0.664,0,-0.7326,-0.7254,-0.7219,-0.7193,-0.7111,-0.7095,-0.706,-0.7003,-0.6973,-0.6924,-0.6904,-0.6852,-0.6822,-0.6782,-0.6725,-0.6715,-0.6677,-0.6651,-0.665,-0.6652,-0.6643,-0.6644,-0.6678,-0.6629,-0.6629,-0.6629,-0.6629,0,-0.7344,-0.7319,-0.724,-0.7218,-0.7188,-0.7129,-0.7101,-0.7061,-0.701,-0.6979,-0.6927,-0.6898,-0.6826,-0.6788,-0.6743,-0.6705,-0.6692,-0.6666,-0.6655,-0.667,-0.6674,-0.6651,-0.6648,-0.6629,-0.6629,-0.6629,-0.6629,0,-0.7392,-0.7338,-0.7296,-0.7223,-0.7204,-0.7186,-0.7122,-0.7098,-0.7055,-0.7016,-0.7003,-0.6934,-0.6887,-0.6827,-0.676,-0.673,-0.6697,-0.6679,-0.6717,-0.6709,-0.6712,-0.6712,-0.6731,-0.673,-0.6684,-0.6685,-0.6685,0,-0.7406,-0.7386,-0.7312,-0.7289,-0.7256,-0.7218,-0.7188,-0.7129,-0.7099,-0.7034,-0.7018,-0.6967,-0.6923,-0.685,-0.6793,-0.6742,-0.6722,-0.6732,-0.6714,-0.673,-0.6721,-0.6722,-0.672,-0.6736,-0.6737,-0.6738,-0.6738,0,-0.7437,-0.7412,-0.7371,-0.7322,-0.7289,-0.7247,-0.7202,-0.7185,-0.7116,-0.7086,-0.7039,-0.7005,-0.6938,-0.6888,-0.683,-0.6792,-0.6753,-0.6745,-0.6742,-0.6757,-0.678,-0.6767,-0.6728,-0.6745,-0.6744,-0.6743,-0.6743,-0.6743,-0.7467,-0.7447,-0.7393,-0.735,-0.7311,-0.7271,-0.7245,-0.72,-0.716,-0.7102,-0.707,-0.7023,-0.6967,-0.6885,-0.6849,-0.681,-0.6796,-0.6792,-0.679,-0.679,-0.6795,-0.6788,-0.68,-0.6799,-0.6799,-0.6799,-0.6799,0,-0.7494,-0.7457,-0.7418,-0.7359,-0.7325,-0.7296,-0.7245,-0.7218,-0.7179,-0.7131,-0.709,-0.7035,-0.6987,-0.6927,-0.6875,-0.6856,-0.6837,-0.6844,-0.6843,-0.6835,-0.6811,-0.6818,-0.686,-0.686,-0.686,-0.686,-0.686,-0.686,-0.7504,-0.7469,-0.7438,-0.7382,-0.7344,-0.73,-0.7274,-0.7236,-0.7198,-0.714,-0.7101,-0.7064,-0.701,-0.6954,-0.6908,-0.6892,-0.6874,-0.6886,-0.6864,-0.6842,-0.6837,-0.6832,-0.6838,-0.6883,-0.6883,-0.6891,-0.6892,-0.6892]},{"header":{"parameterUnit":"m.s-1","parameterCategory":1,"la1":30.2991,"la2":30.254,"lo1":-89.0895,"lo2":-89.0444,"dy":0.0017,"dx":0.0017,"nx":28,"ny":28,"refTime":"2023-07-31T09:00:00:Z","depth":0,"parameterNumber":3,"parameterNumberName":"V-component_of_WINDS"},"data":[0,0,0,0,0,0,0,0,0,0,0,0,0,0,0,0,0,0,0,0,0,0,0,0,0,0,0,0,0,0,0,0,0,0,0,0,0,0,0,0,0,0,0,0,0,0,0,0,0,0,0,0,0,0,0,0,0,0,1.2515,1.2515,0,1.2501,1.2501,1.2501,1.2492,1.2491,1.2491,1.2491,1.2475,1.2475,1.2475,0,0,0,0,0,0,0,0,0,0,0,0,0,1.2529,1.2529,1.2515,1.2515,1.2514,1.2501,1.2501,1.2501,1.2492,1.2491,1.2491,1.2491,1.2475,1.2475,1.2474,0,0,0,0,0,0,0,0,0,0,0,0,0,1.252,1.2529,1.2515,1.2508,1.2508,1.2501,1.2501,1.2501,1.2492,1.2491,1.2491,1.2491,1.2476,1.2475,1.2474,1.2473,0,0,1.2473,1.2472,0,0,0,0,0,0,0,0,1.252,1.2519,1.2509,1.2509,1.2508,1.2498,1.25,1.2491,1.2492,1.2498,1.2491,1.2491,1.2483,1.2482,1.2479,1.2472,1.2471,1.2473,1.2472,1.2472,1.2472,0,0,0,0,0,0,0,1.2521,1.252,1.2509,1.2509,1.2508,1.2505,1.2503,1.2498,1.2491,1.2497,1.2496,1.2495,1.2482,1.248,1.2479,1.2471,1.2473,1.2472,1.2472,1.2472,1.2459,1.2459,0,0,0,0,0,0,1.2523,1.252,1.251,1.2509,1.2514,1.2504,1.2503,1.2501,1.2491,1.2489,1.2495,1.2495,1.2481,1.2479,1.2478,1.2474,1.2472,1.2472,1.2471,1.2459,1.2459,1.2459,0,0,0,0,0,0,1.2523,1.2522,1.251,1.2514,1.2513,1.2504,1.2502,1.2501,1.2498,1.2489,1.2488,1.2494,1.2481,1.2479,1.2474,1.2473,1.2471,1.2471,1.2459,1.2459,1.2459,1.2466,0,0,0,0,0,0,1.2524,1.2522,1.2523,1.2514,1.2512,1.2507,1.2502,1.2501,1.2498,1.2497,1.2488,1.2486,1.248,1.2475,1.2473,1.2472,1.247,1.2459,1.2459,1.2459,1.2466,1.2466,1.2467,0,0,0,0,0,1.2524,1.2525,1.2523,1.2522,1.2513,1.2507,1.2506,1.25,1.2498,1.2497,1.2491,1.2487,1.2473,1.2474,1.2472,1.2471,1.2459,1.2459,1.2459,1.2466,1.2466,1.2467,0,0,0,0,0,0,1.2534,1.2524,1.2521,1.252,1.2515,1.2506,1.2505,1.2501,1.2496,1.2495,1.2487,1.2485,1.248,1.2475,1.2476,1.2468,1.2465,1.2465,1.2471,1.2472,1.2472,1.2473,1.247,0,0,0,0,0,1.2536,1.2533,1.2525,1.2524,1.2522,1.2514,1.2511,1.2507,1.25,1.2498,1.2491,1.2484,1.2478,1.2475,1.2469,1.2465,1.2461,1.2463,1.2463,1.2464,1.2463,1.2458,1.2458,1.2459,1.2459,1.2459,0,0,1.254,1.2534,1.2533,1.2526,1.2521,1.2517,1.2512,1.2509,1.2505,1.2497,1.2492,1.2486,1.2478,1.2472,1.247,1.2468,1.2462,1.2464,1.2464,1.2464,1.2458,1.2458,1.2458,1.2459,1.2459,1.2459,0,0,1.2545,1.2541,1.2539,1.2534,1.2527,1.2522,1.2521,1.2512,1.2509,1.2503,1.2496,1.2491,1.2482,1.2475,1.2471,1.247,1.2465,1.2469,1.2471,1.2466,1.2466,1.2466,1.2464,1.2463,1.2468,1.2468,1.2468,0,1.2551,1.2545,1.2539,1.2535,1.2531,1.2524,1.2521,1.2516,1.2507,1.2504,1.2502,1.2488,1.2482,1.2474,1.2474,1.2471,1.2469,1.247,1.2467,1.2466,1.2466,1.2464,1.2464,1.2469,1.2469,1.2469,1.2469,0,1.2552,1.2548,1.2547,1.2538,1.2534,1.2531,1.2522,1.2519,1.2514,1.2508,1.25,1.2493,1.2484,1.2482,1.2477,1.2472,1.2471,1.2468,1.2466,1.2466,1.2464,1.2464,1.2469,1.2469,1.2469,1.2469,0,0,1.2563,1.255,1.255,1.2544,1.2535,1.2531,1.2526,1.2518,1.2514,1.2507,1.2502,1.2493,1.2489,1.2484,1.2478,1.2474,1.2472,1.2471,1.2471,1.247,1.2463,1.2465,1.2464,1.2468,1.2468,1.2468,1.2463,0,1.2566,1.2558,1.2551,1.2545,1.254,1.2532,1.2527,1.252,1.2513,1.2507,1.2499,1.2493,1.2489,1.2486,1.2481,1.2473,1.247,1.2473,1.2461,1.2461,1.2463,1.2463,1.2466,1.2462,1.2462,1.2462,1.2462,0,1.2569,1.2562,1.2555,1.2544,1.2542,1.2538,1.2528,1.2523,1.2513,1.2509,1.2502,1.2495,1.2488,1.2486,1.2474,1.2476,1.2471,1.2465,1.2465,1.2463,1.2461,1.246,1.246,1.2459,1.2461,1.2461,1.2461,0,1.2576,1.2565,1.2559,1.2556,1.2543,1.254,1.2534,1.2524,1.2519,1.251,1.2506,1.2496,1.2491,1.2483,1.2473,1.2473,1.2461,1.2459,1.2456,1.2456,1.2453,1.2454,1.2452,1.2451,1.2451,1.2451,1.2451,0,1.2579,1.2575,1.2562,1.2559,1.2553,1.2544,1.2538,1.2531,1.2522,1.2516,1.2508,1.2502,1.249,1.2481,1.2473,1.2463,1.2461,1.2456,1.2454,1.2456,1.2457,1.2452,1.2452,1.2451,1.2451,1.2451,1.2451,0,1.2586,1.2578,1.2571,1.2559,1.2555,1.2551,1.254,1.2535,1.2528,1.2519,1.2517,1.2505,1.2494,1.2484,1.247,1.2464,1.2454,1.2451,1.2457,1.2456,1.2453,1.2452,1.2447,1.2445,1.2447,1.2447,1.2447,0,1.2589,1.2585,1.2572,1.2568,1.2562,1.2555,1.2549,1.2539,1.2533,1.252,1.2516,1.2505,1.2496,1.2479,1.2468,1.2457,1.2453,1.2452,1.2451,1.2453,1.2451,1.2451,1.245,1.2452,1.2452,1.2452,1.2452,0,1.2593,1.2589,1.2581,1.2572,1.2565,1.2557,1.2548,1.2544,1.2532,1.2526,1.2515,1.2508,1.2493,1.2481,1.2468,1.246,1.2453,1.2452,1.2451,1.2453,1.2456,1.2452,1.2457,1.2453,1.2452,1.2452,1.2452,1.2452,1.2597,1.2593,1.2583,1.2574,1.2566,1.2558,1.2552,1.2543,1.2534,1.2522,1.2516,1.2505,1.2492,1.2474,1.2466,1.2455,1.2454,1.2452,1.2451,1.2451,1.245,1.2458,1.2453,1.2453,1.2453,1.2453,1.2453,0,1.26,1.2592,1.2585,1.2572,1.2565,1.256,1.2549,1.2543,1.2533,1.2523,1.2513,1.25,1.2488,1.2475,1.2462,1.2456,1.2452,1.2452,1.2452,1.245,1.2453,1.2456,1.2455,1.2455,1.2455,1.2455,1.2455,1.2455,1.26,1.2592,1.2586,1.2573,1.2565,1.2555,1.2549,1.254,1.2531,1.2517,1.2507,1.2499,1.2486,1.2472,1.246,1.2456,1.2451,1.2452,1.2447,1.245,1.245,1.245,1.2452,1.2451,1.2451,1.2445,1.2444,1.2444]}]]